Weather History for KJSV - March, 2013

Change the Weather History Date:

Saturday, March 9, 2013

  Actual Average Record
Temperature  
Mean Temperature 57 °F -  
Max Temperature 64 °F 63 °F 81 °F (1993)
Min Temperature 50 °F 40 °F 19 °F (1969)
Degree Days  
Heating Degree Days 8    
Growing Degree Days 7 (Base 50)    
Moisture  
Dew Point 48 °F    
Average Humidity 68    
Maximum Humidity 100    
Minimum Humidity 47    
Precipitation  
Precipitation 1.09 in - - ()
Sea Level Pressure  
Sea Level Pressure 29.87 in    
Wind  
Wind Speed 10 mph (SE)    
Max Wind Speed 20 mph    
Max Gust Speed 29 mph    
Visibility 9 miles    
Events Rain , Thunderstorm    
Averages and records for this station are not official NWS values.
T = Trace of Precipitation, MM = Missing Value Source: NWS Daily Summary

Daily Weather History Graph

Daily Weather History Graph

Search for Another Location

Airport or City:

Trip Planner

Search our weather history database for the weather conditions in past years. The results will help you decide how hot, cold, wet, or windy it might be!

Date:

Astronomy

Mar. 09, 2013 Rise Set
Actual Time 6:37 AM CST 6:21 PM CST
Civil Twilight 6:12 AM CST 6:47 PM CST
Nautical Twilight 5:43 AM CST 7:16 PM CST
Astronomical Twilight 5:13 AM CST 7:46 PM CST
Moon 4:58 AM CST (3/9) 4:27 PM CST (3/9)
Length of Visible Light 12h 34m
Length of Day
11h 44m
Waning Crescent, 5% of the Moon is Illuminated
Mar 9
Waning Crescent
Mar 11
New
Mar 19
First Quarter
Mar 27
Full
Apr 2
Last Quarter

Hourly Weather History & Observations

Time (CST) Temp. Dew Point Humidity Pressure Visibility Wind Dir Wind Speed Gust Speed Precip Events Conditions
12:15 AM 55.4 °F 35.6 °F 47% 30.05 in 10.0 mi East 15.0 mph - N/A   Mostly Cloudy
12:35 AM 55.4 °F 35.6 °F 47% 30.05 in 10.0 mi East 12.7 mph 20.7 mph N/A   Mostly Cloudy
12:55 AM 55.4 °F 35.6 °F 47% 30.05 in 10.0 mi ESE 9.2 mph 17.3 mph N/A   Overcast
1:15 AM 55.4 °F 35.6 °F 47% 30.04 in 10.0 mi East 9.2 mph 18.4 mph N/A   Overcast
1:35 AM 55.4 °F 35.6 °F 47% 30.03 in 10.0 mi ESE 9.2 mph 18.4 mph N/A   Overcast
1:55 AM 53.6 °F 35.6 °F 51% 30.02 in 10.0 mi ESE 11.5 mph 17.3 mph N/A   Overcast
2:15 AM 53.6 °F 35.6 °F 51% 30.00 in 10.0 mi East 13.8 mph 19.6 mph N/A   Overcast
2:35 AM 53.6 °F 35.6 °F 51% 29.99 in 10.0 mi East 9.2 mph 19.6 mph N/A   Mostly Cloudy
3:15 AM 53.6 °F 37.4 °F 54% 29.98 in 10.0 mi East 9.2 mph - N/A   Mostly Cloudy
3:35 AM 53.6 °F 37.4 °F 54% 29.98 in 10.0 mi East 9.2 mph - N/A   Overcast
3:55 AM 53.6 °F 37.4 °F 54% 29.97 in 10.0 mi East 9.2 mph 17.3 mph N/A   Overcast
4:15 AM 53.6 °F 37.4 °F 54% 29.97 in 10.0 mi East 10.4 mph 17.3 mph N/A   Overcast
4:35 AM 53.6 °F 37.4 °F 54% 29.98 in 10.0 mi East 6.9 mph - N/A   Overcast
4:55 AM 51.8 °F 37.4 °F 58% 29.97 in 10.0 mi East 6.9 mph - N/A   Mostly Cloudy
5:15 AM 51.8 °F 37.4 °F 58% 29.97 in 10.0 mi East 9.2 mph - N/A   Clear
5:35 AM 51.8 °F 37.4 °F 58% 29.97 in 10.0 mi East 8.1 mph - N/A   Clear
6:15 AM 50.0 °F 37.4 °F 62% 29.96 in 10.0 mi East 10.4 mph - N/A   Clear
6:35 AM 50.0 °F 37.4 °F 62% 29.96 in 10.0 mi East 8.1 mph - N/A   Clear
6:55 AM 50.0 °F 37.4 °F 62% 29.95 in 10.0 mi East 9.2 mph - N/A   Clear
7:15 AM 50.0 °F 37.4 °F 62% 29.94 in 10.0 mi East 8.1 mph - N/A   Clear
7:35 AM 51.8 °F 37.4 °F 58% 29.95 in 10.0 mi East 10.4 mph - N/A   Clear
7:55 AM 53.6 °F 37.4 °F 54% 29.97 in 10.0 mi East 8.1 mph - N/A   Clear
8:15 AM 55.4 °F 37.4 °F 51% 29.97 in 10.0 mi East 9.2 mph - N/A   Clear
8:35 AM 59.0 °F 39.2 °F 48% 29.96 in 10.0 mi ESE 6.9 mph - N/A   Mostly Cloudy
9:15 AM 59.0 °F 41.0 °F 51% 29.95 in 10.0 mi SE 9.2 mph - N/A   Clear
9:35 AM 60.8 °F 41.0 °F 48% 29.94 in 10.0 mi ESE 9.2 mph - N/A   Clear
9:55 AM 62.6 °F 44.6 °F 52% 29.93 in 10.0 mi SSE 9.2 mph - N/A   Unknown
10:15 AM 62.6 °F 44.6 °F 52% 29.92 in 10.0 mi SE 9.2 mph 16.1 mph N/A   Overcast
10:35 AM 62.6 °F 44.6 °F 52% 29.91 in 10.0 mi SE 10.4 mph - N/A   Overcast
10:55 AM 64.4 °F 46.4 °F 52% 29.89 in 10.0 mi SE 13.8 mph 24.2 mph N/A   Scattered Clouds
11:15 AM 64.4 °F 50.0 °F 59% 29.90 in 10.0 mi South 17.3 mph 24.2 mph N/A   Scattered Clouds
11:35 AM 64.4 °F 50.0 °F 59% 29.90 in 10.0 mi SSE 13.8 mph 19.6 mph N/A   Mostly Cloudy
11:55 AM 64.4 °F 50.0 °F 59% 29.88 in 10.0 mi SE 9.2 mph - N/A   Scattered Clouds
12:15 PM 62.6 °F 50.0 °F 63% 29.87 in 10.0 mi SE 11.5 mph 17.3 mph N/A   Mostly Cloudy
12:35 PM 62.6 °F 51.8 °F 68% 29.86 in 10.0 mi SE 12.7 mph 18.4 mph N/A   Scattered Clouds
12:55 PM 64.4 °F 51.8 °F 64% 29.85 in 10.0 mi SSE 10.4 mph 18.4 mph N/A   Scattered Clouds
1:15 PM 64.4 °F 51.8 °F 64% 29.84 in 10.0 mi SSE 10.4 mph 18.4 mph N/A   Scattered Clouds
1:35 PM 64.4 °F 51.8 °F 64% 29.82 in 10.0 mi SSE 9.2 mph - N/A   Mostly Cloudy
1:55 PM 64.4 °F 51.8 °F 64% 29.82 in 10.0 mi SE 8.1 mph - N/A   Mostly Cloudy
2:15 PM 64.4 °F 51.8 °F 64% 29.80 in 10.0 mi SE 10.4 mph - N/A   Overcast
2:35 PM 64.4 °F 53.6 °F 68% 29.79 in 10.0 mi SSE 12.7 mph 18.4 mph N/A   Overcast
2:55 PM 64.4 °F 53.6 °F 68% 29.79 in 10.0 mi SSE 12.7 mph 19.6 mph N/A   Mostly Cloudy
3:15 PM 64.4 °F 53.6 °F 68% 29.79 in 10.0 mi SE 8.1 mph - N/A   Mostly Cloudy
3:35 PM 64.4 °F 53.6 °F 68% 29.78 in 10.0 mi SSE 9.2 mph 16.1 mph N/A   Overcast
3:55 PM 64.4 °F 53.6 °F 68% 29.77 in 10.0 mi SSE 10.4 mph 16.1 mph N/A   Mostly Cloudy
4:15 PM 64.4 °F 53.6 °F 68% 29.77 in 10.0 mi SSE 11.5 mph 18.4 mph N/A   Overcast
4:35 PM 64.4 °F 53.6 °F 68% 29.76 in 10.0 mi SE 8.1 mph 16.1 mph N/A   Mostly Cloudy
4:55 PM 62.6 °F 55.4 °F 77% 29.75 in 7.0 mi SE 8.1 mph - N/A Rain Light Rain
5:15 PM 60.8 °F 55.4 °F 82% 29.75 in 2.0 mi SSE 3.5 mph - 0.11 in Rain , Thunderstorm Heavy Thunderstorms and Rain
5:35 PM 60.8 °F 59.0 °F 94% 29.74 in 1.8 mi SSE 3.5 mph - 0.23 in Rain , Thunderstorm Light Thunderstorms and Rain
5:55 PM 60.8 °F 59.0 °F 94% 29.73 in 4.0 mi Calm Calm - 0.24 in Rain , Thunderstorm Rain
6:15 PM 60.8 °F 59.0 °F 94% 29.73 in 5.0 mi SE 8.1 mph - 0.01 in Rain , Thunderstorm Light Thunderstorms and Rain
6:35 PM 60.8 °F 59.0 °F 94% 29.73 in 7.0 mi South 4.6 mph - 0.01 in Rain , Thunderstorm Light Thunderstorms and Rain
6:55 PM 60.8 °F 59.0 °F 94% 29.74 in 7.0 mi Calm Calm - 0.01 in Rain , Thunderstorm Light Thunderstorms and Rain
7:15 PM 60.8 °F 59.0 °F 94% 29.74 in 4.0 mi Calm Calm - 0.01 in Rain , Thunderstorm Thunderstorms and Rain
7:35 PM 60.8 °F 59.0 °F 94% 29.72 in 7.0 mi ESE 5.8 mph - 0.01 in Rain , Thunderstorm Light Thunderstorms and Rain
7:55 PM 60.8 °F 59.0 °F 94% 29.72 in 10.0 mi SE 3.5 mph - 0.01 in Thunderstorm Overcast
8:15 PM 62.6 °F 55.4 °F 77% 29.71 in 10.0 mi SE 4.6 mph - N/A Rain Light Rain
8:55 PM 62.6 °F 57.2 °F 82% 29.73 in 7.0 mi SSE 9.2 mph 19.6 mph 0.03 in Rain , Thunderstorm Thunderstorms and Rain
9:15 PM 62.6 °F 57.2 °F 82% 29.72 in 5.0 mi WNW 9.2 mph - 0.04 in Rain , Thunderstorm Thunderstorms and Rain
9:35 PM 60.8 °F 59.0 °F 94% 29.73 in 3.0 mi SSE 10.4 mph 18.4 mph 0.28 in Rain , Thunderstorm Heavy Thunderstorms and Rain
9:55 PM 60.8 °F 60.8 °F 100% 29.76 in 5.0 mi South 9.2 mph - 0.35 in Rain , Thunderstorm Thunderstorms and Rain
10:15 PM 59.0 °F 57.2 °F 94% 29.78 in 5.0 mi SSW 19.6 mph 28.8 mph 0.08 in Rain , Thunderstorm Thunderstorms and Rain
10:35 PM 57.2 °F 55.4 °F 94% 29.78 in 7.0 mi WSW 11.5 mph 15.0 mph 0.17 in Rain , Thunderstorm Rain
10:55 PM 57.2 °F 55.4 °F 94% 29.77 in 7.0 mi SW 6.9 mph - 0.25 in Rain , Thunderstorm Thunderstorms and Rain
11:15 PM 55.4 °F 55.4 °F 100% 29.78 in 7.0 mi SSE 9.2 mph - 0.06 in Rain , Thunderstorm Thunderstorms and Rain
11:35 PM 55.4 °F 55.4 °F 100% 29.73 in 5.0 mi East 6.9 mph - 0.16 in Rain , Thunderstorm Heavy Thunderstorms and Rain
11:55 PM 55.4 °F 55.4 °F 100% - 10.0 mi SE 3.5 mph - 0.20 in Rain , Thunderstorm Thunderstorms and Rain